Starlink 32037

operational
NORAD ID: 60283 Int'l Des: 2024-132 Owner: SPXS Country: US Constellation: starlink
LEOCIRCULAR

About Starlink 32037

Description loading...

Live Position

Loading 3D Globe...

Upcoming Passes

Altitude History

Altitude vs Time

uPlot chart will show altitude changes over time

Two-Line Element Set

1 60283U 24132F 25308.11937830 -.00000484 00000-0 -41935-5 0 9996
2 60283 53.1614 275.7878 0001729 89.8776 270.2423 15.30198218 72332
Epoch: Nov 4, 2025 • Age: 8 hours

Current Status

Altitude 479.9 km
Velocity 7.63 km/s
Sub-Earth Point 50.02°N, 127.64°E
Launch Date Jul 28, 2024
Age 1.2 years
Type internet

Technical Details

Classification Payload
Mass 730.00 kg
Dry Mass 700.00 kg
Total Mass 730.00 kg
Length 0.30 m
Diameter 4.10 m
Span 29.00 m
Shape Box + pan
Manufacturer SPXS
Bus Type Starlink V2M
Phase Status In Orbit
Owner/State SPXS/US

Large Constellations

Loading constellations...